[[{"header":{"parameterUnit":"m.s-1","parameterCategory":1,"la1":30.2991,"la2":30.254,"lo1":-89.0895,"lo2":-89.0444,"dy":0.0017,"dx":0.0017,"nx":28,"ny":28,"refTime":"2025-04-12T03:00:00:Z","depth":0,"parameterNumber":2,"parameterNumberName":"U-component_of_WINDS"},"data":[0,0,0,0,0,0,0,0,0,0,0,0,0,0,0,0,0,0,0,0,0,0,0,0,0,0,0,0,0,0,0,0,0,0,0,0,0,0,0,0,0,0,0,0,0,0,0,0,0,0,0,0,0,0,0,0,0,0,-0.906,-0.906,0,-0.9063,-0.9063,-0.9063,-0.9068,-0.9068,-0.9068,-0.9068,-0.9072,-0.9072,-0.9072,0,0,0,0,0,0,0,0,0,0,0,0,0,-0.9057,-0.9057,-0.906,-0.906,-0.906,-0.9063,-0.9063,-0.9063,-0.9068,-0.9068,-0.9068,-0.9068,-0.9072,-0.9072,-0.9072,0,0,0,0,0,0,0,0,0,0,0,0,0,-0.9059,-0.9057,-0.906,-0.9062,-0.9062,-0.9063,-0.9063,-0.9063,-0.9068,-0.9068,-0.9068,-0.9068,-0.9072,-0.9072,-0.9072,-0.907,0,0,-0.9072,-0.9072,0,0,0,0,0,0,0,0,-0.9059,-0.9059,-0.9062,-0.9062,-0.9062,-0.9065,-0.9064,-0.9066,-0.9068,-0.9066,-0.9068,-0.9068,-0.907,-0.907,-0.907,-0.9071,-0.9071,-0.9072,-0.9072,-0.9072,-0.9072,0,0,0,0,0,0,0,-0.9059,-0.9059,-0.9061,-0.9062,-0.9062,-0.9063,-0.9064,-0.9064,-0.9067,-0.9066,-0.9066,-0.9067,-0.907,-0.907,-0.907,-0.9071,-0.9072,-0.9072,-0.9072,-0.9072,-0.9071,-0.9071,0,0,0,0,0,0,-0.9058,-0.9059,-0.9061,-0.9061,-0.9061,-0.9063,-0.9064,-0.9064,-0.9067,-0.9068,-0.9066,-0.9067,-0.907,-0.907,-0.9071,-0.9069,-0.9072,-0.9072,-0.9072,-0.9071,-0.9071,-0.907,0,0,0,0,0,0,-0.9058,-0.9058,-0.9061,-0.906,-0.906,-0.9063,-0.9064,-0.9064,-0.9065,-0.9067,-0.9068,-0.9066,-0.907,-0.907,-0.9071,-0.9069,-0.9072,-0.9072,-0.9071,-0.9071,-0.9071,-0.9066,0,0,0,0,0,0,-0.9058,-0.9058,-0.9057,-0.906,-0.906,-0.906,-0.9064,-0.9064,-0.9065,-0.9065,-0.9068,-0.9068,-0.907,-0.907,-0.9071,-0.9069,-0.9072,-0.9071,-0.9071,-0.9071,-0.9066,-0.9066,-0.9065,0,0,0,0,0,-0.9058,-0.9056,-0.9057,-0.9058,-0.906,-0.906,-0.9061,-0.9063,-0.9065,-0.9064,-0.9066,-0.9068,-0.907,-0.907,-0.9071,-0.9069,-0.9071,-0.9071,-0.9071,-0.9067,-0.9066,-0.9065,0,0,0,0,0,0,-0.9053,-0.9056,-0.9058,-0.9057,-0.9058,-0.9061,-0.906,-0.9062,-0.9063,-0.9064,-0.9067,-0.9067,-0.9067,-0.9068,-0.9069,-0.9068,-0.9071,-0.907,-0.9067,-0.9067,-0.9066,-0.9066,-0.9073,0,0,0,0,0,-0.9052,-0.9052,-0.9055,-0.9054,-0.9055,-0.9057,-0.9058,-0.906,-0.9061,-0.9062,-0.9064,-0.9065,-0.9066,-0.9067,-0.9068,-0.9067,-0.9067,-0.9066,-0.9066,-0.9065,-0.9065,-0.9065,-0.9064,-0.907,-0.907,-0.907,0,0,-0.905,-0.9052,-0.9051,-0.9053,-0.9054,-0.9055,-0.9058,-0.9058,-0.9058,-0.9062,-0.9062,-0.9064,-0.9066,-0.9065,-0.9065,-0.9066,-0.9064,-0.9065,-0.9065,-0.9065,-0.9065,-0.9064,-0.9064,-0.907,-0.907,-0.907,0,0,-0.9046,-0.9047,-0.9046,-0.9048,-0.905,-0.9052,-0.9051,-0.9054,-0.9055,-0.9055,-0.9058,-0.9059,-0.906,-0.9061,-0.9062,-0.9059,-0.9061,-0.906,-0.9057,-0.9057,-0.9056,-0.9056,-0.9055,-0.9054,-0.9059,-0.9059,-0.9059,0,-0.9042,-0.9043,-0.9046,-0.9046,-0.9046,-0.905,-0.9049,-0.9051,-0.9053,-0.9053,-0.9055,-0.9057,-0.9058,-0.9058,-0.9058,-0.9058,-0.9058,-0.9059,-0.9056,-0.9056,-0.9055,-0.9055,-0.9054,-0.9059,-0.9059,-0.9059,-0.9059,0,-0.9039,-0.9039,-0.9038,-0.9041,-0.9041,-0.9041,-0.9044,-0.9044,-0.9046,-0.9048,-0.9049,-0.9051,-0.9052,-0.9053,-0.9054,-0.9053,-0.9054,-0.9056,-0.9058,-0.9055,-0.9054,-0.9053,-0.9059,-0.9059,-0.9059,-0.9059,0,0,-0.9031,-0.9035,-0.9035,-0.9036,-0.9039,-0.9039,-0.9039,-0.9041,-0.9041,-0.9043,-0.9043,-0.9044,-0.9046,-0.9047,-0.9049,-0.9049,-0.9047,-0.9051,-0.9051,-0.905,-0.9046,-0.9044,-0.9044,-0.9048,-0.9048,-0.9048,-0.9046,0,-0.9028,-0.9028,-0.9031,-0.903,-0.903,-0.9034,-0.9034,-0.9036,-0.9038,-0.9039,-0.9041,-0.9042,-0.9044,-0.9045,-0.9045,-0.9047,-0.9046,-0.9047,-0.9049,-0.9049,-0.9048,-0.9043,-0.9041,-0.9038,-0.9045,-0.9045,-0.9045,0,-0.9023,-0.9024,-0.9024,-0.9027,-0.9027,-0.9027,-0.9029,-0.903,-0.9032,-0.9033,-0.9035,-0.9037,-0.9038,-0.904,-0.9041,-0.9042,-0.9043,-0.9044,-0.9044,-0.9044,-0.9046,-0.9043,-0.9038,-0.9037,-0.9045,-0.9045,-0.9045,0,-0.9018,-0.9019,-0.9019,-0.902,-0.9024,-0.9024,-0.9025,-0.9027,-0.9028,-0.903,-0.9031,-0.9032,-0.9033,-0.9035,-0.9038,-0.9039,-0.9039,-0.9041,-0.904,-0.904,-0.9039,-0.9039,-0.9034,-0.904,-0.904,-0.904,-0.904,0,-0.9013,-0.9012,-0.9017,-0.9017,-0.9016,-0.902,-0.9019,-0.9021,-0.9024,-0.9024,-0.9028,-0.9028,-0.9032,-0.9033,-0.9036,-0.9036,-0.9037,-0.9038,-0.9038,-0.9037,-0.9037,-0.9038,-0.9038,-0.904,-0.904,-0.904,-0.904,0,-0.9006,-0.9009,-0.9009,-0.9013,-0.9014,-0.9013,-0.9017,-0.9017,-0.9019,-0.902,-0.902,-0.9024,-0.9025,-0.9029,-0.9031,-0.9033,-0.9033,-0.9034,-0.9032,-0.9032,-0.903,-0.9031,-0.9025,-0.9025,-0.9031,-0.9031,-0.9031,0,-0.9003,-0.9003,-0.9006,-0.9007,-0.9008,-0.9009,-0.901,-0.9014,-0.9014,-0.9017,-0.9017,-0.9019,-0.902,-0.9023,-0.9026,-0.9028,-0.9029,-0.9027,-0.9029,-0.9028,-0.9029,-0.9029,-0.9029,-0.9026,-0.9026,-0.9026,-0.9026,0,-0.8996,-0.8998,-0.8999,-0.9001,-0.9002,-0.9004,-0.9005,-0.9006,-0.901,-0.9011,-0.9012,-0.9014,-0.9016,-0.9018,-0.902,-0.9022,-0.9025,-0.9025,-0.9025,-0.9024,-0.9023,-0.9023,-0.903,-0.9025,-0.9026,-0.9026,-0.9026,-0.9026,-0.8991,-0.8991,-0.8994,-0.8995,-0.8997,-0.8998,-0.8999,-0.9001,-0.9003,-0.9005,-0.9007,-0.9009,-0.9012,-0.9015,-0.9017,-0.9018,-0.902,-0.9019,-0.9019,-0.9019,-0.9018,-0.9023,-0.9019,-0.9019,-0.9019,-0.9019,-0.9019,0,-0.8985,-0.8987,-0.8988,-0.899,-0.8991,-0.8994,-0.8996,-0.8997,-0.8998,-0.9001,-0.9002,-0.9004,-0.9006,-0.9009,-0.9012,-0.9012,-0.9013,-0.9013,-0.9012,-0.9013,-0.9017,-0.9017,-0.9012,-0.9012,-0.9012,-0.9012,-0.9012,-0.9012,-0.8981,-0.8981,-0.8984,-0.8985,-0.8987,-0.8988,-0.8989,-0.8991,-0.8993,-0.8995,-0.8996,-0.8999,-0.9002,-0.9004,-0.9006,-0.9007,-0.9008,-0.9007,-0.9008,-0.9012,-0.9013,-0.9013,-0.9013,-0.9007,-0.9007,-0.9004,-0.9004,-0.9004]},{"header":{"parameterUnit":"m.s-1","parameterCategory":1,"la1":30.2991,"la2":30.254,"lo1":-89.0895,"lo2":-89.0444,"dy":0.0017,"dx":0.0017,"nx":28,"ny":28,"refTime":"2025-04-12T03:00:00:Z","depth":0,"parameterNumber":3,"parameterNumberName":"V-component_of_WINDS"},"data":[0,0,0,0,0,0,0,0,0,0,0,0,0,0,0,0,0,0,0,0,0,0,0,0,0,0,0,0,0,0,0,0,0,0,0,0,0,0,0,0,0,0,0,0,0,0,0,0,0,0,0,0,0,0,0,0,0,0,3.525,3.525,0,3.5269,3.527,3.527,3.5303,3.5303,3.5304,3.5304,3.5322,3.5321,3.5321,0,0,0,0,0,0,0,0,0,0,0,0,0,3.5238,3.5238,3.525,3.525,3.525,3.5269,3.527,3.527,3.5302,3.5303,3.5304,3.5305,3.5322,3.5321,3.5321,0,0,0,0,0,0,0,0,0,0,0,0,0,3.5249,3.5238,3.525,3.5269,3.5271,3.5269,3.527,3.527,3.5302,3.5303,3.5304,3.5305,3.5322,3.5321,3.5321,3.5302,0,0,3.5321,3.5321,0,0,0,0,0,0,0,0,3.5248,3.5249,3.5266,3.5267,3.527,3.5285,3.5272,3.5281,3.5302,3.529,3.5304,3.5305,3.5308,3.5309,3.5311,3.5303,3.5303,3.5321,3.5321,3.5321,3.5321,0,0,0,0,0,0,0,3.5247,3.5248,3.5257,3.5266,3.5268,3.5276,3.5278,3.5274,3.5294,3.5291,3.5294,3.5296,3.5309,3.5311,3.5311,3.5304,3.5321,3.5321,3.532,3.532,3.5282,3.5281,0,0,0,0,0,0,3.5244,3.5247,3.5257,3.5258,3.5261,3.5275,3.5278,3.5279,3.5294,3.5297,3.5295,3.5297,3.5311,3.5312,3.5312,3.5291,3.5321,3.532,3.532,3.5283,3.5281,3.528,0,0,0,0,0,0,3.5243,3.5244,3.5256,3.5253,3.5255,3.5274,3.5275,3.5279,3.528,3.5297,3.53,3.5293,3.5312,3.5312,3.5305,3.5292,3.532,3.532,3.5284,3.5282,3.5281,3.5249,0,0,0,0,0,0,3.5243,3.5244,3.5237,3.5253,3.5255,3.5249,3.5274,3.5278,3.528,3.5283,3.5296,3.5299,3.5312,3.5305,3.5305,3.5293,3.532,3.5285,3.5283,3.5281,3.5251,3.5247,3.5243,0,0,0,0,0,3.5242,3.5227,3.5237,3.5238,3.5248,3.5248,3.5249,3.5266,3.5279,3.5272,3.5283,3.5298,3.5294,3.5304,3.5304,3.5292,3.5286,3.5283,3.5281,3.5253,3.5247,3.5243,0,0,0,0,0,0,3.5208,3.5229,3.5241,3.5229,3.5237,3.5253,3.5245,3.526,3.5262,3.5265,3.5285,3.5288,3.5277,3.5284,3.5294,3.5274,3.5292,3.529,3.527,3.5265,3.5261,3.526,3.532,0,0,0,0,0,3.5199,3.5198,3.5216,3.5205,3.5208,3.5226,3.5227,3.5239,3.5247,3.525,3.526,3.5267,3.5267,3.5266,3.5267,3.5252,3.5256,3.5244,3.524,3.5236,3.5234,3.5227,3.5222,3.5274,3.5274,3.5274,0,0,3.518,3.5192,3.519,3.5198,3.5205,3.5204,3.5228,3.5225,3.5224,3.5249,3.5243,3.5251,3.5259,3.5248,3.5243,3.5253,3.5221,3.5233,3.523,3.523,3.5225,3.522,3.5215,3.5272,3.5272,3.5273,0,0,3.5146,3.5154,3.5146,3.5153,3.5165,3.5177,3.5175,3.5189,3.5196,3.519,3.521,3.5208,3.5208,3.5213,3.5216,3.5185,3.5199,3.5184,3.5162,3.5155,3.5151,3.5148,3.5137,3.5133,3.5182,3.5182,3.5182,0,3.5121,3.512,3.514,3.5136,3.5139,3.5164,3.5156,3.5161,3.5171,3.5172,3.5183,3.5184,3.5191,3.5182,3.5175,3.5176,3.5174,3.5183,3.5151,3.5147,3.5144,3.5135,3.513,3.518,3.518,3.5181,3.5181,0,3.509,3.5089,3.5081,3.5092,3.5094,3.5088,3.5106,3.5106,3.5118,3.5129,3.5123,3.5133,3.5137,3.5136,3.5147,3.5128,3.5134,3.5147,3.5166,3.5137,3.5129,3.5125,3.5178,3.5178,3.5179,3.5179,0,0,3.5034,3.5057,3.5053,3.5059,3.5073,3.5073,3.5068,3.5073,3.5072,3.5078,3.5075,3.5074,3.5087,3.509,3.5103,3.5097,3.5072,3.5111,3.5112,3.5104,3.5053,3.5043,3.5038,3.5082,3.5081,3.5081,3.5052,0,3.5003,3.4997,3.5014,3.5004,3.5003,3.5027,3.5022,3.503,3.504,3.5041,3.5052,3.5052,3.5068,3.507,3.5065,3.5076,3.5062,3.5079,3.5078,3.5078,3.5076,3.5034,3.5023,3.4996,3.5049,3.5048,3.5048,0,3.4965,3.4972,3.4961,3.4977,3.4978,3.4974,3.498,3.498,3.499,3.4998,3.5002,3.5017,3.5013,3.503,3.5025,3.5035,3.5036,3.5042,3.5041,3.5042,3.5062,3.5034,3.4988,3.4984,3.5042,3.5043,3.5043,0,3.4927,3.4932,3.4927,3.4931,3.4949,3.4946,3.4953,3.4964,3.4966,3.4971,3.4973,3.4977,3.4979,3.4982,3.4997,3.5009,3.499,3.5009,3.4996,3.4996,3.4992,3.4992,3.4945,3.4991,3.4991,3.4991,3.4991,0,3.489,3.4883,3.491,3.4906,3.4899,3.4919,3.4911,3.4921,3.493,3.4929,3.4948,3.4947,3.4967,3.4967,3.4979,3.4973,3.4974,3.498,3.4983,3.4979,3.4978,3.498,3.4982,3.499,3.4991,3.4991,3.4991,0,3.4846,3.4863,3.4859,3.4877,3.4882,3.4875,3.4891,3.4888,3.49,3.4898,3.4899,3.4917,3.4918,3.4934,3.4938,3.4947,3.4936,3.4943,3.4933,3.4936,3.4922,3.4924,3.4876,3.4871,3.4919,3.4919,3.4918,0,3.4822,3.4817,3.4835,3.4836,3.4843,3.4844,3.4847,3.4867,3.4869,3.488,3.4876,3.488,3.4884,3.4885,3.4898,3.4901,3.4908,3.4891,3.4909,3.4905,3.4909,3.4909,3.4909,3.4888,3.4887,3.4887,3.4886,0,3.4778,3.4787,3.4791,3.4798,3.4801,3.4807,3.4814,3.4814,3.4836,3.4837,3.4839,3.4842,3.4848,3.4851,3.4857,3.4864,3.4879,3.4881,3.4878,3.4873,3.4869,3.4872,3.4924,3.4882,3.4882,3.4882,3.4883,3.4883,3.4743,3.474,3.4753,3.4757,3.4765,3.4772,3.4771,3.4783,3.4786,3.4793,3.4804,3.4805,3.4815,3.4825,3.483,3.4831,3.484,3.4836,3.4835,3.4834,3.4832,3.4868,3.4832,3.4832,3.4832,3.4832,3.4833,0,3.4701,3.4711,3.4714,3.4724,3.4727,3.4742,3.4751,3.4753,3.4754,3.4762,3.4766,3.4769,3.4772,3.4786,3.4791,3.4789,3.4796,3.4789,3.479,3.4791,3.4823,3.4825,3.4784,3.4784,3.4784,3.4784,3.4784,3.4784,3.4679,3.4676,3.4687,3.4687,3.4697,3.4699,3.4703,3.4709,3.4716,3.4719,3.4723,3.4732,3.4743,3.4749,3.4752,3.4756,3.4757,3.4749,3.4755,3.4784,3.4789,3.4793,3.4796,3.4749,3.4748,3.4723,3.4723,3.4723]}]]